Flag for United Kingdom Weather past 2 weeks in Nottingham, England, United Kingdom

Now
48 °F

Passing clouds.


Feels Like: 45 °F
Forecast: 45 / 60 °F
Wind: 7 mph from Southwest

Location: East Midlands


UV Index: 0 (Low)

Visibility: 6 mi


Pressure: 30.09 "Hg

Humidity: 94%

Dew point: 46 °F

Location of NottinghamLocation

Historic Weather in Nottingham

°F

Nottingham temperature yesterday

Maximum temperature yesterday: 61 °F (at 11:50 AM)
Minimum temperature yesterday: 45 °F (at 6:20 AM)
Average temperature yesterday: 53 °F

Past Weeks' High & Low Weather Summary

 TemperatureHumidityPressure
High64 °F (Apr 21, 1:50 PM)100% (Apr 20, 9:20 AM)30.45 "Hg (Apr 20, 9:20 AM)
Low34 °F (Apr 19, 5:20 AM)36% (Apr 16, 2:20 PM)29.65 "Hg (Apr 20, 6:50 PM)
Average49 °F75%30.08 "Hg
* Reported Apr 9 3:20 AM — Apr 24 3:20 AM, Nottingham, Weather by CustomWeather, © 2014

Note: Actual official high and low records may vary slightly from our data, if they occured in-between our weather recording intervals... More about our weather records

Advertising

Historic Weather Conditions — Data for Previous 24 hours

 ConditionsComfort  
Time TempWeatherWind HumidityBarometerVisibility
3:20 AM
Apr 24
48 °FPassing clouds.6 mph94%30.09 "HgN/A
2:50 AM50 °FPassing clouds.7 mph88%30.09 "HgN/A
2:20 AM50 °FPassing clouds.6 mph94%30.09 "HgN/A
1:50 AM50 °FPassing clouds.3 mph94%30.09 "HgN/A
1:20 AM50 °FPassing clouds.5 mph94%30.09 "HgN/A
12:50 AM50 °FPassing clouds.7 mph94%30.07 "HgN/A
12:20 AM50 °FPartly cloudy.6 mph94%30.07 "HgN/A
11:20 PM
Apr 23
50 °FLight rain. Passing clouds.6 mph94%30.07 "HgN/A
10:50 PM50 °FLight rain. Passing clouds.7 mph88%30.07 "HgN/A
10:20 PM52 °FLight rain. Passing clouds.9 mph94%30.07 "HgN/A
9:50 PM52 °FPassing clouds.8 mph94%30.07 "HgN/A
9:20 PM52 °FPassing clouds.7 mph94%30.07 "HgN/A
8:50 PM52 °FPartly sunny.6 mph94%30.07 "HgN/A
8:20 PM54 °FPartly sunny.7 mph88%30.04 "HgN/A
7:50 PM54 °FBroken clouds.9 mph88%30.04 "HgN/A
7:20 PM54 °FRain showers. Broken clouds.8 mph94%30.04 "HgN/A
6:50 PM54 °FSprinkles. Broken clouds.10 mph88%30.04 "HgN/A
6:20 PM55 °FDrizzle. Partly sunny.13 mph82%30.04 "HgN/A
5:20 PM57 °FPartly sunny.14 mph67%30.01 "HgN/A
4:50 PM59 °FPartly sunny.13 mph63%30.01 "HgN/A
4:20 PM59 °FScattered clouds.15 mph59%30.01 "HgN/A
3:50 PM59 °FScattered clouds.16 mph59%30.01 "HgN/A
3:20 PM61 °FScattered clouds.15 mph55%30.01 "HgN/A
2:50 PM61 °FScattered clouds.16 mph55%30.01 "HgN/A
2:20 PM61 °FScattered clouds.17 mph55%30.01 "HgN/A
1:50 PM61 °FScattered clouds.20 mph55%30.01 "HgN/A
1:20 PM61 °FScattered clouds.15 mph55%30.01 "HgN/A
12:50 PM61 °FBroken clouds.16 mph59%30.01 "HgN/A
12:20 PM59 °FScattered clouds.16 mph63%30.01 "HgN/A
11:50 AM61 °FScattered clouds.17 mph59%30.01 "HgN/A
11:20 AM59 °FScattered clouds.18 mph63%30.01 "Hg5 mi
10:50 AM57 °FScattered clouds.14 mph72%30.01 "Hg5 mi
10:20 AM55 °FScattered clouds.14 mph72%30.01 "Hg5 mi
9:50 AM55 °FPassing clouds.10 mph72%30.01 "Hg5 mi
9:20 AM54 °FPassing clouds.9 mph77%30.01 "Hg5 mi
8:50 AM52 °FClear.8 mph82%30.01 "Hg5 mi
8:20 AM50 °FPassing clouds.9 mph88%30.01 "Hg5 mi
7:50 AM48 °FScattered clouds.8 mph94%29.98 "Hg4 mi
7:20 AM46 °FPartly sunny.7 mph93%29.98 "Hg4 mi
6:50 AM46 °FPartly sunny.9 mph93%29.98 "Hg4 mi
6:20 AM45 °FPassing clouds.8 mph100%29.95 "Hg4 mi
5:50 AM46 °FClear.9 mph93%29.95 "Hg4 mi
5:20 AM46 °FPassing clouds.7 mph93%29.95 "HgN/A
4:50 AM48 °FPassing clouds.6 mph94%29.95 "HgN/A
4:20 AM48 °FPassing clouds.9 mph94%29.95 "HgN/A
Weather by CustomWeather, © 2014

See weather overview